sat.trackr.live / text

‹ back to catalog

STARLINK-2234

NORAD 48580 · 2021-041AD

PAYLOAD ACTIVE UNKNOWN

§ Identity

Operator
Country
US
Launch date
2021-05-15
Launch site
AFETR
Launch vehicle
Mass (kg)
RCS (m²)

Purposes: comms

External: N2YO · Heavens-Above · Gunter

§ Orbital elements

Epoch: 2026-05-25T03:35:44.695104Z

Period
94.01 min
Inclination
53.1592°
Eccentricity
0.0001249
Mean motion
15.31697853 rev/d
Perigee alt
469.9 km
Apogee alt
471.6 km
Semi-major
6,848.9 km
B*
2.1946e-5
RAAN
105.3928°
Arg perigee
91.5262°
Mean anomaly
268.5882°
Rev number
27,735

§ Raw data

STARLINK-22341 48580U 21041AD  26145.14982286  .00000316  00000+0  21946-4 0  99962 48580  53.1592 105.3928 0001249  91.5262 268.5882 15.31697853277352

JSON: /api/v1/satellites/48580 · /tle

For live sub-satellite position, see the globe view (requires WebGL).

§ Visibility from observer

Set your observer location to see the next 7 days of passes ≥ 10°. The values pass through the URL so the page stays shareable.

No JS? Fill the form by hand. The geolocation button needs JavaScript.